Date String (YYYY-MM-DD hh:mm:ss) UTC,Instrument flags,Ambient pressure (hPa),Sample flow (lpm),Bypass flow (lpm),Sample temperature (°C),Ambient temperature (°C),ASC tube jacket temperature (°C),LED temperature (°C),Box temperature (°C),Sample RH (%),Mass concentration (μg/m³),Mass concentration (μg/m³)
DateTimeUTC,F1_M11,P_M11,Q1_M11,Q2_M11,T1_M11,T2_M11,T3_M11,T4_M11,T5_M11,U1_M11,X2_M11,X0_M11
2021-08-18 14:00:00,,0824.1,4.99,0.00,30.1,29.3,00.0,39.1,32.0,21.2,0017.02,0023.86
2021-08-18 14:01:00,,0824.1,5.01,0.00,30.2,29.4,00.0,39.1,32.0,20.7,0017.01,0024.02
2021-08-18 14:02:00,,0824.1,5.00,0.00,30.2,28.6,00.0,39.2,31.8,20.8,0017.04,0024.11
2021-08-18 14:03:00,,0824.1,4.99,0.00,30.0,26.7,00.0,39.1,31.2,21.2,0016.99,0023.71
2021-08-18 14:04:00,,0824.1,5.02,0.00,29.9,26.3,00.0,39.1,31.1,21.1,0016.97,0023.75
2021-08-18 14:05:00,,0824.1,4.99,0.00,29.8,26.7,00.0,39.0,31.2,21.4,0016.94,0025.22
2021-08-18 14:06:00,,0824.1,5.00,0.00,29.8,27.1,00.0,39.0,31.3,22.0,0016.94,0025.67
2021-08-18 14:07:00,,0824.1,5.02,0.00,29.7,27.5,00.0,39.0,31.3,22.2,0016.94,0025.60
2021-08-18 14:08:00,,0824.1,4.98,0.00,29.7,27.8,00.0,39.0,31.4,22.3,0016.90,0025.94
2021-08-18 14:09:00,,0824.1,5.02,0.00,29.8,28.0,00.0,38.9,31.5,22.8,0016.90,0026.20
2021-08-18 14:10:00,,0824.1,4.99,0.00,29.8,28.3,00.0,38.9,31.5,22.5,0016.94,0025.81
2021-08-18 14:11:00,,0824.1,4.99,0.00,29.8,28.4,00.0,38.9,31.6,21.9,0016.87,0026.17
2021-08-18 14:12:00,,0824.1,5.01,0.00,29.8,28.6,00.0,38.9,31.6,21.1,0016.86,0026.32
2021-08-18 14:13:00,,0824.1,4.99,0.00,29.9,28.7,00.0,38.9,31.7,21.3,0016.86,0026.43
2021-08-18 14:14:00,,0824.1,5.00,0.00,29.9,28.8,00.0,39.0,31.7,20.9,0016.90,0026.75
2021-08-18 14:15:00,,0824.1,5.00,0.00,29.9,28.9,00.0,39.0,31.8,21.5,0016.94,0027.15
2021-08-18 14:16:00,,0824.1,4.99,0.00,30.0,29.0,00.0,39.0,31.8,21.6,0016.95,0025.60
2021-08-18 14:17:00,,0824.1,5.01,0.00,30.0,29.0,00.0,39.0,31.9,20.9,0016.92,0025.28
2021-08-18 14:18:00,,0824.1,4.99,0.00,30.0,29.1,00.0,39.0,31.9,21.1,0016.86,0025.53
2021-08-18 14:19:00,,0824.1,5.01,0.00,30.1,29.2,00.0,39.1,31.9,21.8,0016.85,0025.68
2021-08-18 14:20:00,,0824.1,4.99,0.00,30.1,29.2,00.0,39.1,31.9,21.4,0016.80,0025.61
2021-08-18 14:21:00,,0824.1,5.00,0.00,30.1,29.3,00.0,39.1,32.0,21.5,0016.72,0025.81
2021-08-18 14:22:00,,0824.2,5.00,0.00,30.2,29.0,00.0,39.1,31.9,21.5,0016.75,0025.52
2021-08-18 14:23:00,,0824.2,5.00,0.00,30.1,27.2,00.0,39.1,31.6,21.4,0016.77,0025.68
2021-08-18 14:24:00,,0824.2,5.00,0.00,29.9,26.4,00.0,39.1,31.2,21.4,0016.71,0025.37
2021-08-18 14:25:00,,0824.2,5.01,0.00,29.9,26.7,00.0,39.1,31.3,20.8,0016.66,0024.95
2021-08-18 14:26:00,,0824.2,5.00,0.00,29.8,27.1,00.0,39.0,31.4,21.8,0016.67,0024.98
2021-08-18 14:27:00,,0824.2,5.00,0.00,29.8,27.5,00.0,39.0,31.4,21.1,0016.66,0025.16
2021-08-18 14:28:00,,0824.2,4.99,0.00,29.8,27.8,00.0,39.0,31.5,21.8,0016.68,0025.31
2021-08-18 14:29:00,,0824.3,5.02,0.00,29.8,28.1,00.0,38.9,31.5,22.1,0016.66,0025.35
2021-08-18 14:30:00,,0824.2,4.99,0.00,29.8,28.3,00.0,39.0,31.6,21.7,0016.68,0025.20
2021-08-18 14:31:00,,0824.2,5.00,0.00,29.9,28.5,00.0,39.0,31.7,21.3,0016.67,0024.89
2021-08-18 14:32:00,,0824.2,4.99,0.00,29.9,28.7,00.0,39.0,31.7,21.4,0016.67,0025.39
2021-08-18 14:33:00,,0824.2,4.99,0.00,29.9,28.8,00.0,39.0,31.7,21.2,0016.65,0026.02
2021-08-18 14:34:00,,0824.2,4.98,0.00,30.0,28.9,00.0,39.0,31.8,21.2,0016.63,0026.84
2021-08-18 14:35:00,,0824.2,5.01,0.00,30.0,29.0,00.0,39.0,31.9,20.6,0016.64,0027.74
2021-08-18 14:36:00,,0824.1,4.99,0.00,30.0,29.1,00.0,39.0,31.9,20.7,0016.69,0028.73
2021-08-18 14:37:00,,0824.1,5.00,0.00,30.1,29.2,00.0,39.0,31.9,20.9,0016.66,0029.59
2021-08-18 14:38:00,,0824.1,5.01,0.00,30.1,28.9,00.0,39.1,31.9,21.4,0016.67,0029.57
2021-08-18 14:39:00,,0824.1,4.99,0.00,30.0,27.3,00.0,39.0,31.4,21.3,0016.69,0029.49
2021-08-18 14:40:00,,0824.1,5.00,0.00,29.9,26.5,00.0,39.0,31.2,22.0,0016.71,0029.09
2021-08-18 14:41:00,,0824.1,5.01,0.00,29.8,26.8,00.0,39.0,31.3,21.6,0016.72,0029.05
2021-08-18 14:42:00,,0824.1,5.00,0.00,29.8,27.2,00.0,39.0,31.3,20.8,0016.74,0029.04
2021-08-18 14:43:00,,0824.2,4.98,0.00,29.7,27.6,00.0,38.9,31.4,20.2,0016.74,0028.09
2021-08-18 14:44:00,,0824.2,5.01,0.00,29.8,27.9,00.0,38.9,31.5,20.2,0016.78,0027.78
2021-08-18 14:45:00,,0824.2,4.99,0.00,29.8,28.2,00.0,38.9,31.6,20.4,0016.82,0027.43
2021-08-18 14:46:00,,0824.2,5.02,0.00,29.8,28.4,00.0,38.9,31.6,20.7,0016.83,0026.58
2021-08-18 14:47:00,,0824.2,5.01,0.00,29.9,28.6,00.0,38.9,31.7,20.5,0016.82,0025.89
2021-08-18 14:48:00,,0824.2,4.99,0.00,29.9,28.7,00.0,38.9,31.7,20.0,0016.83,0024.73
2021-08-18 14:49:00,,0824.1,5.00,0.00,29.9,28.8,00.0,38.9,31.8,20.4,0016.88,0024.60
2021-08-18 14:50:00,,0824.1,5.01,0.00,30.0,29.0,00.0,39.0,31.8,20.4,0016.91,0024.85
2021-08-18 14:51:00,,0824.1,5.02,0.00,30.0,29.1,00.0,39.0,31.9,20.5,0016.94,0025.05
2021-08-18 14:52:00,,0824.1,5.00,0.00,30.0,28.7,00.0,39.0,31.8,20.4,0016.89,0025.02
2021-08-18 14:53:00,,0824.1,4.99,0.00,29.9,27.0,00.0,39.0,31.4,21.0,0016.84,0025.39
2021-08-18 14:54:00,,0824.1,5.00,0.00,29.8,26.5,00.0,38.9,31.2,20.9,0016.86,0025.79
2021-08-18 14:55:00,,0824.1,4.99,0.00,29.8,26.9,00.0,38.9,31.3,20.8,0016.84,0025.34
2021-08-18 14:56:00,,0824.1,5.00,0.00,29.7,27.3,00.0,38.9,31.3,20.2,0016.81,0024.82
2021-08-18 14:57:00,,0824.2,5.01,0.00,29.7,27.6,00.0,38.9,31.4,21.4,0016.78,0025.25
2021-08-18 14:58:00,,0824.2,4.99,0.00,29.7,27.9,00.0,38.9,31.5,23.2,0016.75,0025.14
2021-08-18 14:59:00,,0824.2,5.01,0.00,29.8,28.2,00.0,38.9,31.5,22.7,0016.72,0025.60
